Weather History for KAJO - October, 2012

Change the Weather History Date:

Saturday, October 6, 2012

  Actual Average (KONT) Record (KONT)
Temperature  
Mean Temperature 66 °F 70 °F  
Max Temperature 82 °F 83 °F 97 °F (2014)
Min Temperature 50 °F 58 °F 48 °F (2007)
Degree Days  
Heating Degree Days 0 1  
Month to date heating degree days 1  
Since 1 July heating degree days 4  
Cooling Degree Days 1 6  
Month to date cooling degree days 39  
Year to date cooling degree days 1590  
Growing Degree Days 16 (Base 50)    
Moisture  
Dew Point 54 °F    
Average Humidity 83    
Maximum Humidity 100    
Minimum Humidity 33    
Precipitation  
Precipitation 0.00 in 0.01 in 0.45 in (2010)
Month to date precipitation 0.04  
Year to date precipitation 10.91  
Since 1 July precipitation 0.53  
Snow  
Snow 0.00 in - - ()
Month to date snowfall  
Year to date snowfall  
Since 1 July snowfall  
Snow Depth -    
Sea Level Pressure  
Sea Level Pressure 29.94 in    
Wind  
Wind Speed - (North)    
Max Wind Speed -    
Max Gust Speed -    
Visibility 6 miles    
Events Fog    
T = Trace of Precipitation, MM = Missing Value Source: NWS Daily Summary

Daily Weather History Graph

Daily Weather History Graph

Search for Another Location

Airport or City:

Trip Planner

Search our weather history database for the weather conditions in past years. The results will help you decide how hot, cold, wet, or windy it might be!

Date:

Astronomy

Oct. 06, 2012 Rise Set
Actual Time 6:48 AM PDT 6:27 PM PDT
Civil Twilight 6:23 AM PDT 6:52 PM PDT
Nautical Twilight 5:55 AM PDT 7:21 PM PDT
Astronomical Twilight 5:26 AM PDT 7:49 PM PDT
Moon 10:59 PM PDT (10/6) 12:34 PM PDT (10/6)
Length of Visible Light 12h 28m
Length of Day
11h 38m
Waning Gibbous, 64% of the Moon is Illuminated
Oct 6
Waning Gibbous
Oct 8
Last Quarter
Oct 15
New
Oct 21
First Quarter
Oct 29
Full

Hourly Weather History & Observations

Time (PDT) Temp. Heat Index Dew Point Humidity Pressure Visibility Wind Dir Wind Speed Gust Speed Precip Events Conditions
12:56 AM 61.0 °F - 59.0 °F 93% 29.96 in 10.0 mi North - - N/A   Clear
1:56 AM 56.8 °F - 55.9 °F 97% 29.96 in 8.0 mi North - - N/A   Clear
2:56 AM 54.0 °F - 52.9 °F 96% 29.95 in 5.0 mi North - - N/A   Clear
3:00 AM 53.6 °F - 53.6 °F 100% 29.97 in 1.5 mi North - - N/A   Clear
3:02 AM 53.6 °F - 53.6 °F 100% 29.97 in 1.0 mi North - - N/A   Clear
3:12 AM 53.6 °F - 53.6 °F 100% 29.96 in 1.5 mi North - - N/A   Clear
3:14 AM 53.6 °F - 53.6 °F 100% 29.96 in 4.0 mi North - - N/A   Clear
3:56 AM 54.0 °F - 54.0 °F 100% 29.95 in 4.0 mi North - - N/A   Clear
4:28 AM 53.6 °F - 53.6 °F 100% 29.96 in 2.5 mi North - - N/A   Clear
4:56 AM 52.9 °F - 52.9 °F 100% 29.94 in 9.0 mi North - - N/A   Clear
5:56 AM 52.0 °F - 52.0 °F 100% 29.95 in 10.0 mi North - - N/A   Clear
6:19 AM 53.6 °F - 51.8 °F 94% 29.97 in 10.0 mi North - - N/A   Scattered Clouds
6:25 AM 51.8 °F - 50.0 °F 94% 29.97 in 2.5 mi North - - N/A   Mostly Cloudy
6:27 AM 51.8 °F - 48.2 °F 88% 29.97 in 0.8 mi North - - N/A   Mostly Cloudy
6:33 AM 51.8 °F - 50.0 °F 94% 29.97 in 0.2 mi North - - N/A Fog Fog
6:48 AM 51.8 °F - 51.8 °F 100% 29.97 in 0.2 mi North - - N/A Fog Fog
6:56 AM 50.0 °F - 50.0 °F 100% 29.96 in 0.5 mi North - - N/A Fog Fog
7:14 AM 51.8 °F - 51.8 °F 100% 29.97 in 0.2 mi North - - N/A Fog Fog
7:21 AM 51.8 °F - 51.8 °F 100% 29.97 in 0.8 mi North - - N/A   Mist
7:23 AM 50.0 °F - 50.0 °F 100% 29.97 in 1.2 mi North - - N/A   Mostly Cloudy
7:26 AM 50.0 °F - 50.0 °F 100% 29.97 in 2.0 mi North - - N/A   Partly Cloudy
7:38 AM 51.8 °F - 51.8 °F 100% 29.97 in 4.0 mi North - - N/A   Clear
7:56 AM 54.0 °F - 54.0 °F 100% 29.97 in 5.0 mi North - - N/A   Clear
8:56 AM 61.9 °F - 56.8 °F 84% 29.97 in 7.0 mi North - - N/A   Clear
9:56 AM 68.9 °F - 56.8 °F 65% 29.96 in 8.0 mi North - - N/A   Clear
10:56 AM 72.9 °F - 57.9 °F 59% 29.95 in 7.0 mi North - - N/A   Clear
11:56 AM 75.9 °F - 57.9 °F 54% 29.94 in 10.0 mi North - - N/A   Clear
12:56 PM 79.0 °F - 54.0 °F 42% 29.91 in 10.0 mi North - - N/A   Clear
1:56 PM 82.9 °F - 50.9 °F 33% 29.88 in 10.0 mi North - - N/A   Clear
2:56 PM 81.9 °F 81.1 °F 54.0 °F 38% 29.87 in 10.0 mi North - - N/A   Clear
3:56 PM 81.9 °F 81.8 °F 57.9 °F 44% 29.86 in 10.0 mi North - - N/A   Clear
4:56 PM 79.0 °F - 59.0 °F 50% 29.86 in 10.0 mi North - - N/A   Clear
5:56 PM 74.8 °F - 57.9 °F 55% 29.86 in 10.0 mi North - - N/A   Clear
6:56 PM 72.9 °F - 57.9 °F 59% 29.88 in 10.0 mi North - - N/A   Clear
7:56 PM 70.9 °F - 59.0 °F 66% 29.89 in 10.0 mi North - - N/A   Clear
8:56 PM 68.0 °F - 59.9 °F 75% 29.90 in 10.0 mi North - - N/A   Clear
9:56 PM 64.9 °F - 59.0 °F 81% 29.91 in 10.0 mi North - - N/A   Clear
10:56 PM 63.0 °F - 57.9 °F 84% 29.91 in 10.0 mi North - - N/A   Clear
11:56 PM 63.0 °F - 59.9 °F 90% 29.91 in 10.0 mi North - - N/A   Clear